Location: Shannon
(40.5500°S, 175.4167°E)
Time: 22:01:05
(UTC+00:00)

Cosmos 1821 Rocket - Pass Details

Date: 17 November 2025
Orbit: 945 x 1002 km, 82.9° (Epoch: 14 December)

Event Time Altitude Azimuth Distance (km) Brightness Sun altitude
Exits shadow 13:56:42 38° 23° (NNE) 1,492 4.6 -24.8°
Maximum altitude 13:59:08 63° 87° (E) 1,117 4.3 -24.5°
Drops below altitude 10° 14:05:26 10° 166° (SSE) 2,778 7.4 -23.9°
Sets 14:07:58 0° 169° (SSE) 3,725 8.2 -23.7°
